Погода в Лопуховке

Россия / Саратовская область     51°59′30″N   44°42′00″E
темп.,
°C
ветер,
м/с
пор.,
м/с
влажн.,
%
обл.,
%
осадки,
мм/ч
давл.,
гПа
погр.,
м
22 апреля, чт
чт2201:00+6ююв47915 0.0 1019126
04:00+5ю38945 0.0 1020141
07:00+6ююв36945 0.0 1021143
10:00+12ююз57663 0.0 1021768
13:00+14юз685126 0.2 10211844
16:00+14зюз575185 0.6 10211846
19:00+12юз2365100 0.0 102258
22:00+11ссз117039 0.0 102310
23 апреля, пт
пт2301:00+9в11755 0.0 102310
04:00+8вюв227850 0.0 102310
07:00+8в2480100 0.0 102376
10:00+12вюв4571100 0.0 1022369
13:00+14юв5559100 1.3 1021874
16:00+13ююв3461100 3.3 1020816
19:00+12ю1173100 0.7 101943
22:00+10ююв227999 1.1 101828
24 апреля, сб
сб2401:00+8з1185100 0.1 101611
04:00+7юв229049 0.1 101519
07:00+8ююв369196 0.0 1014226
10:00+11ююв5677100 0.3 1012586
13:00+14юз8115699 1.6 10101699
16:00+10зюз8118136 2.2 1010920
19:00+7з5874100 0.1 10111116
22:00+6юз488232 0.1 1012235
25 апреля, вс
вс2501:00+6зюз5118350 1.3 1011852
04:00+3зюз7128599 1.3 1012460
07:00+3зюз81279100 0.1 1014966
10:00+3з81276100 0.1 10161051
13:00+8з8105088 0.0 10172056
16:00+9з7943100 0.0 10172609
19:00+8зюз68545 0.1 1019807
22:00+5юз36665 0.1 102096
26 апреля, пн
пн2601:00+3юз347166 0.0 102061
04:00+3ююз336929 0.0 102033
07:00+3ю356910 0.0 102097
10:00+9ю454716 0.0 10181275
13:00+11ю5540100 0.0 10172115
16:00+12ю5639100 0.0 10152137
19:00+10ю575497 0.0 1013429
22:00+7ююв366870 0.1 1012124